Location: Aalen
(48.8330°N, 10.1000°E)
Time: 18:57:41
(UTC+02:00)

Transit 4A - Pass Details

Date: 02 August 2021
Orbit: 871 x 974 km, 66.8° (Epoch: 16 September)

Event Time Altitude Azimuth Distance (km) Brightness Sun altitude
Rises 11:25:19 0° 311° (NW) 3,484 10.5 50.4°
Reaches altitude 10° 11:29:02 10° 287° (WNW) 2,553 10.0 50.9°
Maximum altitude 11:31:56 14° 257° (WSW) 2,277 9.9 51.2°
Drops below altitude 10° 11:34:54 10° 227° (SW) 2,574 10.3 51.6°
Sets 11:38:41 0° 204° (SSW) 3,532 11.1 52.0°
